Location: Boston
(42.3580°N, 71.0600°W)
Time: 19:03:58
(UTC-04:00)

Tiangong 1 - Pass Details

Date: 09 October 2017
Orbit: 292 x 319 km, 42.8° (Epoch: 22 October)

Event Time Altitude Azimuth Distance (km) Brightness Sun altitude
Rises 19:09:32 0° 265° (W) 2,041 6.8 -11.5°
Reaches altitude 10° 19:11:32 10° 266° (W) 1,206 5.1 -11.9°
Maximum altitude 19:14:14 83° 353° (N) 316 0.6 -12.4°
Enters shadow 19:15:30 27° 81° (E) 629 1.6 -12.6°
